Location: *
(33.8649°S, 62.1526°E)
Time: 13:05:31
(UTC+00:00)

ATLAS CENTAUR Rocket - Pass Details

Date: 17 January 2021
Orbit: 611 x 36636 km, 27.9° (Epoch: 01 March)

Event Time Altitude Azimuth Distance (km) Brightness Sun altitude
Exits shadow 22:54:41 30° 350° (N) 2,050 3.7 -21.8°
Maximum altitude 22:57:28 41° 36° (NE) 2,277 4.3 -21.4°
Drops below altitude 10° 23:22:01 10° 99° (E) 11,228 8.8 -17.7°
Sets 23:57:29 0° 100° (E) 20,720 10.6 -11.9°
